Time,TemperatureF,DewpointF,PressureIn,WindDirection,WindDirectionDegrees,WindSpeedMPH,WindSpeedGustMPH,Humidity,HourlyPrecipIn,Conditions,Clouds,dailyrainin,SoftwareType,DateUTC
2013-08-17 00:08:00,55.6,53.0,30.14,East,100,0.0,1.0,90,0.00,,,0.00,weatherlink.com 1.10,2013-08-17 05:08:00,
2013-08-17 00:23:00,54.7,52.0,30.14,East,100,0.0,0.0,90,0.00,,,0.00,weatherlink.com 1.10,2013-08-17 05:23:00,
2013-08-17 00:38:00,54.0,52.0,30.15,East,100,0.0,0.0,92,0.00,,,0.00,weatherlink.com 1.10,2013-08-17 05:38:00,
2013-08-17 00:53:00,54.5,53.0,30.15,East,101,0.0,0.0,93,0.00,,,0.00,weatherlink.com 1.10,2013-08-17 05:53:00,
2013-08-17 01:08:00,53.8,51.0,30.15,East,101,0.0,0.0,91,0.00,,,0.00,weatherlink.com 1.10,2013-08-17 06:08:00,
2013-08-17 01:23:00,53.7,52.0,30.15,East,100,0.0,0.0,92,0.00,,,0.00,weatherlink.com 1.10,2013-08-17 06:23:00,
2013-08-17 01:38:00,53.3,51.0,30.14,East,100,0.0,0.0,93,0.00,,,0.00,weatherlink.com 1.10,2013-08-17 06:38:00,
2013-08-17 02:08:00,52.2,51.0,30.14,East,101,0.0,0.0,94,0.00,,,0.00,weatherlink.com 1.10,2013-08-17 07:08:00,
2013-08-17 02:23:00,52.2,51.0,30.14,East,100,0.0,0.0,95,0.00,,,0.00,weatherlink.com 1.10,2013-08-17 07:23:00,
2013-08-17 02:38:00,51.5,50.0,30.14,East,101,0.0,0.0,94,0.00,,,0.00,weatherlink.com 1.10,2013-08-17 07:38:00,
2013-08-17 02:53:00,51.7,50.0,30.14,East,100,0.0,0.0,95,0.00,,,0.00,weatherlink.com 1.10,2013-08-17 07:53:00,
2013-08-17 03:08:00,51.0,49.0,30.14,East,100,0.0,0.0,94,0.00,,,0.00,weatherlink.com 1.10,2013-08-17 08:08:00,
2013-08-17 03:23:00,51.2,50.0,30.14,East,100,0.0,0.0,95,0.00,,,0.00,weatherlink.com 1.10,2013-08-17 08:23:00,
2013-08-17 03:38:00,50.6,49.0,30.14,East,101,0.0,0.0,95,0.00,,,0.00,weatherlink.com 1.10,2013-08-17 08:38:00,
2013-08-17 03:53:00,50.7,49.0,30.14,East,100,0.0,0.0,95,0.00,,,0.00,weatherlink.com 1.10,2013-08-17 08:53:00,
2013-08-17 04:08:00,50.2,49.0,30.14,East,100,0.0,0.0,95,0.00,,,0.00,weatherlink.com 1.10,2013-08-17 09:08:00,
2013-08-17 04:24:00,49.6,48.0,30.14,East,100,0.0,0.0,95,0.00,,,0.00,weatherlink.com 1.10,2013-08-17 09:24:00,
2013-08-17 04:38:00,49.3,48.0,30.14,East,100,0.0,0.0,96,0.00,,,0.00,weatherlink.com 1.10,2013-08-17 09:38:00,
2013-08-17 04:53:00,49.2,48.0,30.15,East,101,0.0,0.0,96,0.00,,,0.00,weatherlink.com 1.10,2013-08-17 09:53:00,
2013-08-17 05:08:00,49.7,49.0,30.15,East,101,0.0,0.0,96,0.00,,,0.00,weatherlink.com 1.10,2013-08-17 10:08:00,
2013-08-17 05:23:00,49.7,49.0,30.15,East,100,0.0,0.0,97,0.00,,,0.00,weatherlink.com 1.10,2013-08-17 10:23:00,
2013-08-17 05:38:00,49.6,49.0,30.16,East,101,0.0,0.0,96,0.00,,,0.00,weatherlink.com 1.10,2013-08-17 10:38:00,
2013-08-17 05:53:00,49.1,48.0,30.16,East,101,0.0,0.0,96,0.00,,,0.00,weatherlink.com 1.10,2013-08-17 10:53:00,
2013-08-17 06:08:00,48.5,48.0,30.17,East,101,0.0,0.0,96,0.00,,,0.00,weatherlink.com 1.10,2013-08-17 11:08:00,
2013-08-17 06:23:00,48.4,47.0,30.17,East,100,0.0,0.0,96,0.00,,,0.00,weatherlink.com 1.10,2013-08-17 11:23:00,
2013-08-17 06:38:00,49.1,48.0,30.17,East,100,0.0,0.0,96,0.00,,,0.00,weatherlink.com 1.10,2013-08-17 11:38:00,
2013-08-17 06:54:00,49.5,49.0,30.17,East,101,0.0,0.0,97,0.00,,,0.00,weatherlink.com 1.10,2013-08-17 11:54:00,
2013-08-17 07:09:00,50.8,50.0,30.18,East,101,0.0,0.0,97,0.00,,,0.00,weatherlink.com 1.10,2013-08-17 12:09:00,
2013-08-17 07:24:00,53.1,52.0,30.18,East,100,0.0,0.0,97,0.00,,,0.00,weatherlink.com 1.10,2013-08-17 12:24:00,
2013-08-17 07:39:00,55.0,54.0,30.18,East,100,0.0,0.0,97,0.00,,,0.00,weatherlink.com 1.10,2013-08-17 12:39:00,
2013-08-17 07:54:00,57.8,56.0,30.19,ENE,71,1.0,1.0,93,0.00,,,0.00,weatherlink.com 1.10,2013-08-17 12:54:00,
2013-08-17 08:09:00,60.6,57.0,30.19,NE,51,1.0,3.0,89,0.00,,,0.00,weatherlink.com 1.10,2013-08-17 13:09:00,
2013-08-17 08:24:00,62.3,58.0,30.19,ENE,75,1.0,3.0,86,0.00,,,0.00,weatherlink.com 1.10,2013-08-17 13:24:00,
2013-08-17 08:39:00,65.0,59.0,30.19,ENE,63,1.0,3.0,81,0.00,,,0.00,weatherlink.com 1.10,2013-08-17 13:39:00,
2013-08-17 08:54:00,66.6,60.0,30.19,ENE,61,2.0,4.0,79,0.00,,,0.00,weatherlink.com 1.10,2013-08-17 13:54:00,
2013-08-17 09:09:00,67.9,59.0,30.19,East,82,3.0,6.0,74,0.00,,,0.00,weatherlink.com 1.10,2013-08-17 14:09:00,
2013-08-17 09:24:00,69.8,60.0,30.19,ENE,58,2.0,6.0,72,0.00,,,0.00,weatherlink.com 1.10,2013-08-17 14:24:00,
2013-08-17 09:39:00,71.4,60.0,30.18,East,94,4.0,6.0,68,0.00,,,0.00,weatherlink.com 1.10,2013-08-17 14:39:00,
2013-08-17 09:54:00,72.3,59.0,30.19,ENE,75,5.0,7.0,63,0.00,,,0.00,weatherlink.com 1.10,2013-08-17 14:54:00,
2013-08-17 10:09:00,72.7,58.0,30.19,ENE,65,7.0,9.0,60,0.00,,,0.00,weatherlink.com 1.10,2013-08-17 15:09:00,
2013-08-17 10:24:00,73.0,57.0,30.19,ENE,76,4.0,8.0,58,0.00,,,0.00,weatherlink.com 1.10,2013-08-17 15:24:00,
2013-08-17 10:39:00,74.0,59.0,30.18,ENE,75,6.0,9.0,60,0.00,,,0.00,weatherlink.com 1.10,2013-08-17 15:39:00,
2013-08-17 10:54:00,74.2,57.0,30.18,East,79,5.0,10.0,56,0.00,,,0.00,weatherlink.com 1.10,2013-08-17 15:54:00,
2013-08-17 11:09:00,74.6,59.0,30.18,ENE,72,6.0,9.0,59,0.00,,,0.00,weatherlink.com 1.10,2013-08-17 16:09:00,
2013-08-17 11:24:00,75.5,59.0,30.18,East,86,4.0,10.0,56,0.00,,,0.00,weatherlink.com 1.10,2013-08-17 16:24:00,
2013-08-17 11:39:00,76.2,58.0,30.17,NE,54,9.0,12.0,53,0.00,,,0.00,weatherlink.com 1.10,2013-08-17 16:39:00,
2013-08-17 11:54:00,76.0,56.0,30.17,ENE,76,8.0,12.0,51,0.00,,,0.00,weatherlink.com 1.10,2013-08-17 16:54:00,
2013-08-17 12:09:00,76.3,57.0,30.17,ENE,74,7.0,9.0,52,0.00,,,0.00,weatherlink.com 1.10,2013-08-17 17:09:00,
2013-08-17 12:40:00,76.7,59.0,30.16,ENE,65,3.0,11.0,54,0.00,,,0.00,weatherlink.com 1.10,2013-08-17 17:40:00,
2013-08-17 12:55:00,76.8,57.0,30.16,East,94,7.0,11.0,51,0.00,,,0.00,weatherlink.com 1.10,2013-08-17 17:55:00,
2013-08-17 13:10:00,76.6,56.0,30.15,ESE,115,7.0,11.0,49,0.00,,,0.00,weatherlink.com 1.10,2013-08-17 18:10:00,
2013-08-17 13:25:00,77.4,57.0,30.15,ESE,117,10.0,10.0,50,0.00,,,0.00,weatherlink.com 1.10,2013-08-17 18:25:00,
2013-08-17 13:40:00,78.1,57.0,30.14,ENE,70,5.0,9.0,48,0.00,,,0.00,weatherlink.com 1.10,2013-08-17 18:40:00,
2013-08-17 13:55:00,77.8,58.0,30.14,East,80,5.0,10.0,51,0.00,,,0.00,weatherlink.com 1.10,2013-08-17 18:55:00,
2013-08-17 14:10:00,77.3,56.0,30.14,ENE,72,5.0,11.0,48,0.00,,,0.00,weatherlink.com 1.10,2013-08-17 19:10:00,
2013-08-17 14:25:00,77.6,56.0,30.14,NE,54,7.0,12.0,48,0.00,,,0.00,weatherlink.com 1.10,2013-08-17 19:25:00,
2013-08-17 14:40:00,77.7,56.0,30.13,East,81,1.0,10.0,47,0.00,,,0.00,weatherlink.com 1.10,2013-08-17 19:40:00,
2013-08-17 14:55:00,78.3,55.0,30.13,East,83,9.0,11.0,45,0.00,,,0.00,weatherlink.com 1.10,2013-08-17 19:55:00,
2013-08-17 15:10:00,78.6,57.0,30.13,ENE,76,4.0,9.0,48,0.00,,,0.00,weatherlink.com 1.10,2013-08-17 20:10:00,
2013-08-17 15:25:00,78.6,57.0,30.13,East,83,10.0,10.0,48,0.00,,,0.00,weatherlink.com 1.10,2013-08-17 20:25:00,
2013-08-17 15:40:00,78.6,57.0,30.12,ENE,58,2.0,9.0,48,0.00,,,0.00,weatherlink.com 1.10,2013-08-17 20:40:00,
2013-08-17 15:55:00,77.9,58.0,30.12,East,84,7.0,9.0,50,0.00,,,0.00,weatherlink.com 1.10,2013-08-17 20:55:00,
2013-08-17 16:10:00,77.9,57.0,30.12,East,85,5.0,9.0,49,0.00,,,0.00,weatherlink.com 1.10,2013-08-17 21:10:00,
2013-08-17 16:25:00,77.8,58.0,30.12,ENE,75,4.0,9.0,51,0.00,,,0.00,weatherlink.com 1.10,2013-08-17 21:25:00,
2013-08-17 16:40:00,77.0,58.0,30.12,NE,56,3.0,9.0,52,0.00,,,0.00,weatherlink.com 1.10,2013-08-17 21:40:00,
2013-08-17 16:55:00,77.8,58.0,30.12,NE,50,7.0,7.0,51,0.00,,,0.00,weatherlink.com 1.10,2013-08-17 21:55:00,
2013-08-17 17:10:00,77.1,58.0,30.12,East,80,7.0,9.0,52,0.00,,,0.00,weatherlink.com 1.10,2013-08-17 22:10:00,
2013-08-17 17:25:00,76.9,57.0,30.12,East,99,3.0,8.0,50,0.00,,,0.00,weatherlink.com 1.10,2013-08-17 22:25:00,
2013-08-17 17:40:00,77.0,57.0,30.12,NE,51,4.0,7.0,50,0.00,,,0.00,weatherlink.com 1.10,2013-08-17 22:40:00,
2013-08-17 17:55:00,76.3,57.0,30.12,ENE,58,4.0,8.0,52,0.00,,,0.00,weatherlink.com 1.10,2013-08-17 22:55:00,
2013-08-17 18:10:00,76.0,57.0,30.11,ENE,72,3.0,6.0,52,0.00,,,0.00,weatherlink.com 1.10,2013-08-17 23:10:00,
2013-08-17 18:25:00,75.5,57.0,30.11,ENE,65,1.0,5.0,52,0.00,,,0.00,weatherlink.com 1.10,2013-08-17 23:25:00,
2013-08-17 18:40:00,74.8,59.0,30.11,NE,41,1.0,3.0,58,0.00,,,0.00,weatherlink.com 1.10,2013-08-17 23:40:00,
2013-08-17 18:55:00,73.5,59.0,30.11,NE,53,1.0,2.0,61,0.00,,,0.00,weatherlink.com 1.10,2013-08-17 23:55:00,
2013-08-17 19:10:00,71.8,59.0,30.11,ENE,66,0.0,2.0,64,0.00,,,0.00,weatherlink.com 1.10,2013-08-18 00:10:00,
2013-08-17 19:25:00,70.5,59.0,30.11,ENE,61,1.0,1.0,68,0.00,,,0.00,weatherlink.com 1.10,2013-08-18 00:25:00,
2013-08-17 19:40:00,69.0,60.0,30.12,NE,51,0.0,1.0,72,0.00,,,0.00,weatherlink.com 1.10,2013-08-18 00:40:00,
2013-08-17 19:55:00,67.4,59.0,30.12,NE,46,0.0,1.0,75,0.00,,,0.00,weatherlink.com 1.10,2013-08-18 00:55:00,
2013-08-17 20:10:00,65.9,59.0,30.11,NE,54,0.0,1.0,78,0.00,,,0.00,weatherlink.com 1.10,2013-08-18 01:10:00,
2013-08-17 20:25:00,65.1,59.0,30.11,NE,54,1.0,1.0,80,0.00,,,0.00,weatherlink.com 1.10,2013-08-18 01:25:00,
2013-08-17 20:55:00,63.0,57.0,30.11,ENE,58,0.0,1.0,82,0.00,,,0.00,weatherlink.com 1.10,2013-08-18 01:55:00,
2013-08-17 21:10:00,61.4,57.0,30.12,ENE,58,0.0,0.0,85,0.00,,,0.00,weatherlink.com 1.10,2013-08-18 02:10:00,
2013-08-17 21:25:00,60.6,56.0,30.12,ENE,63,0.0,1.0,86,0.00,,,0.00,weatherlink.com 1.10,2013-08-18 02:25:00,
2013-08-17 21:40:00,59.8,56.0,30.12,ENE,64,0.0,1.0,88,0.00,,,0.00,weatherlink.com 1.10,2013-08-18 02:40:00,
2013-08-17 21:55:00,60.1,57.0,30.13,ENE,67,0.0,1.0,88,0.00,,,0.00,weatherlink.com 1.10,2013-08-18 02:55:00,
2013-08-17 22:10:00,59.3,56.0,30.12,ENE,67,0.0,0.0,88,0.00,,,0.00,weatherlink.com 1.10,2013-08-18 03:10:00,
2013-08-17 22:25:00,58.8,56.0,30.12,ENE,67,0.0,1.0,90,0.00,,,0.00,weatherlink.com 1.10,2013-08-18 03:25:00,
2013-08-17 22:40:00,58.9,56.0,30.12,ENE,67,0.0,1.0,90,0.00,,,0.00,weatherlink.com 1.10,2013-08-18 03:40:00,
2013-08-17 22:55:00,58.7,56.0,30.12,ENE,70,0.0,1.0,90,0.00,,,0.00,weatherlink.com 1.10,2013-08-18 03:55:00,
2013-08-17 23:10:00,57.2,54.0,30.12,ENE,69,0.0,0.0,88,0.00,,,0.00,weatherlink.com 1.10,2013-08-18 04:10:00,
2013-08-17 23:25:00,55.3,53.0,30.12,ENE,70,0.0,0.0,91,0.00,,,0.00,weatherlink.com 1.10,2013-08-18 04:25:00,
2013-08-17 23:40:00,54.7,53.0,30.12,ENE,70,0.0,0.0,93,0.00,,,0.00,weatherlink.com 1.10,2013-08-18 04:40:00,
2013-08-17 23:55:00,55.5,54.0,30.12,ENE,70,0.0,0.0,95,0.00,,,0.00,weatherlink.com 1.10,2013-08-18 04:55:00,